Location: ??????
(56.0120°N, 39.1740°E)
Time: 08:10:24
(UTC+00:00)

Cosmos 2333 Rocket - Pass Details

Date: 14 April 2026
Orbit: 842 x 860 km, 70.8° (Epoch: 9 May)

Event Time Altitude Azimuth Distance (km) Brightness Sun altitude
Rises 17:25:00 0° 238° (WSW) 3,398 5.7 -8.1°
Reaches altitude 10° 17:27:34 10° 245° (WSW) 2,464 5.1 -8.4°
Maximum altitude 17:32:58 45° 317° (NW) 1,137 3.5 -9.0°
Drops below altitude 10° 17:38:25 10° 31° (NNE) 2,473 4.7 -9.7°
Sets 17:41:00 0° 37° (NE) 3,412 5.3 -9.9°
